User: anonymous   Login
Location: Unspecified
(0.0000°N, 0.0000°E)
Time: 13:07:00
(UTC+00:00)
Language:

USA 229 - Orbit

View from above orbital plane
View from above orbital plane
View from above satellite
View from above satellite

Ground track
Ground track

The orbit data is extracted from the following two-line orbital elements,

1 37386U 11014A   16207.91152926 0.00000000  00000-0  00000-0 0    08
2 37386  63.4295 126.4708 0038000   6.3831 353.6169 13.40711002    00
Epoch (UTC): 25 July 2016 21:52:36
Eccentricity: 0.0038000
inclination: 63.4295°
perigee height: 1078 km
apogee height: 1135 km
right ascension of ascending node: 126.4708°
argument of perigee: 6.3831°
revolutions per day: 13.40711002
mean anomaly at epoch: 353.6169°
orbit number at epoch: 0

The dashed part of the orbit path shows where the satellite is in the earth's shadow,  

DLR